Fresno, CA

10:07 AM PST on November 22, 2019 (GMT -0800)
Fresno Yosemite International

Weather History for KFAT - September, 2019

Change the Weather History Date:

Tuesday, September 3, 2019

  Actual Average Record
Temperature  
Mean Temperature 87 °F 79 °F  
Max Temperature 100 °F 94 °F 111 °F (1955)
Min Temperature 73 °F 64 °F 52 °F (1964)
Degree Days  
Heating Degree Days 0    
Month to date heating degree days 0  
Since 1 July heating degree days 0  
Cooling Degree Days 22    
Month to date cooling degree days 68  
Year to date cooling degree days 2009  
Growing Degree Days 36 (Base 50)    
Moisture  
Dew Point 51 °F    
Average Humidity 33    
Maximum Humidity 46    
Minimum Humidity 19    
Precipitation  
Precipitation 0.00 in 0.00 in 0.42 in (1985)
Month to date precipitation 0.00 0.00  
Year to date precipitation 9.52 7.86  
Snow  
Snow 0.00 in - - ()
Month to date snowfall 0.0  
Since 1 July snowfall 0.0  
Since 1 September snowfall 0.0  
Snow Depth 0.00 in    
Sea Level Pressure  
Sea Level Pressure 29.88 in    
Wind  
Wind Speed 8 mph (NW)    
Max Wind Speed 15 mph    
Max Gust Speed 22 mph    
Visibility 10 miles    
Events      
T = Trace of Precipitation, MM = Missing Value Source: NWS Daily Summary

Daily Weather History Graph

Daily Weather History Graph

Search for Another Location

Airport or City:

Astronomy

Sep. 03, 2019 Rise Set
Actual Time 6:31 AM PDT 7:24 PM PDT
Civil Twilight 6:05 AM PDT 7:50 PM PDT
Nautical Twilight 5:33 AM PDT 8:21 PM PDT
Astronomical Twilight 5:01 AM PDT 8:54 PM PDT
Moon 11:22 AM PDT (9/3) 10:32 PM PDT (9/3)
Length of Visible Light 13h 45m
Length of Day
12h 53m
Waxing Crescent, 25% of the Moon is Illuminated
Sep 3
Waxing Crescent
Sep 5
First Quarter
Sep 13
Full
Sep 21
Last Quarter
Sep 28
New

Hourly Weather History & Observations

Time (PDT) Temp. Heat Index Dew Point Humidity Pressure Visibility Wind Dir Wind Speed Gust Speed Precip Events Conditions
12:53 AM 81.0 °F - 52.0 °F 36% 29.90 in 10.0 mi NW 11.5 mph - N/A   Scattered Clouds
1:53 AM 79.0 °F - 52.0 °F 39% 29.90 in 10.0 mi NW 9.2 mph - N/A   Scattered Clouds
2:53 AM 78.1 °F - 52.0 °F 40% 29.90 in 10.0 mi NNW 8.1 mph - N/A   Mostly Cloudy
3:53 AM 75.9 °F - 51.1 °F 42% 29.90 in 10.0 mi NNW 6.9 mph - N/A   Scattered Clouds
4:53 AM 75.0 °F - 52.0 °F 44% 29.89 in 10.0 mi NW 9.2 mph - N/A   Scattered Clouds
5:53 AM 73.9 °F - 50.0 °F 43% 29.91 in 10.0 mi North 3.5 mph - N/A   Partly Cloudy
6:53 AM 73.0 °F - 52.0 °F 48% 29.93 in 10.0 mi WNW 4.6 mph - N/A   Partly Cloudy
7:53 AM 73.9 °F - 51.1 °F 45% 29.94 in 10.0 mi WNW 8.1 mph - N/A   Clear
8:53 AM 78.1 °F - 51.1 °F 39% 29.94 in 10.0 mi NNW 5.8 mph - N/A   Clear
9:53 AM 82.0 °F 81.2 °F 53.1 °F 37% 29.95 in 10.0 mi WNW 3.5 mph - N/A   Clear
10:53 AM 87.1 °F 85.1 °F 54.0 °F 32% 29.94 in 10.0 mi West 3.5 mph - N/A   Clear
11:53 AM 90.0 °F 87.9 °F 55.0 °F 30% 29.92 in 10.0 mi West 5.8 mph - N/A   Partly Cloudy
12:53 PM 93.0 °F 90.8 °F 54.0 °F 27% 29.91 in 10.0 mi WNW 4.6 mph - N/A   Partly Cloudy
1:53 PM 96.1 °F 93.8 °F 54.0 °F 24% 29.88 in 10.0 mi NW 9.2 mph - N/A   Partly Cloudy
2:53 PM 98.1 °F 95.7 °F 53.1 °F 22% 29.86 in 10.0 mi NW 8.1 mph - N/A   Partly Cloudy
4:53 PM 100.0 °F - 51.1 °F 19% 29.82 in 10.0 mi WNW 12.7 mph - N/A   Partly Cloudy
5:53 PM 99.0 °F - 50.0 °F 19% 29.82 in 10.0 mi WNW 13.8 mph - N/A   Partly Cloudy
6:53 PM 97.0 °F - 50.0 °F 20% 29.81 in 10.0 mi NW 11.5 mph - N/A   Scattered Clouds
7:53 PM 93.0 °F - 48.0 °F 21% 29.81 in 10.0 mi NW 11.5 mph - N/A   Scattered Clouds
8:53 PM 90.0 °F - 46.9 °F 23% 29.83 in 10.0 mi NW 10.4 mph - N/A   Partly Cloudy
9:53 PM 87.1 °F - 48.9 °F 27% 29.83 in 10.0 mi NW 10.4 mph - N/A   Partly Cloudy
10:53 PM 84.0 °F - 50.0 °F 31% 29.83 in 10.0 mi WNW 9.2 mph - N/A   Partly Cloudy
11:53 PM 82.0 °F - 52.0 °F 35% 29.84 in 10.0 mi West 6.9 mph - N/A   Partly Cloudy